Weather History for KLBL - September, 2013

Change the Weather History Date:

Saturday, September 21, 2013

  Actual Average Record
Temperature  
Mean Temperature 66 °F -  
Max Temperature 80 °F 81 °F 98 °F (1977)
Min Temperature 51 °F 53 °F 36 °F (1983)
Growing Degree Days 16 (Base 50)    
Moisture  
Dew Point 49 °F    
Average Humidity 57    
Maximum Humidity 82    
Minimum Humidity 37    
Precipitation  
Precipitation 0.00 in - - ()
Sea Level Pressure  
Sea Level Pressure 30.02 in    
Wind  
Wind Speed 11 mph (South)    
Max Wind Speed 22 mph    
Max Gust Speed 34 mph    
Visibility 10 miles    
Events      
Averages and records for this station are not official NWS values.
T = Trace of Precipitation, MM = Missing Value Source: NWS Daily Summary

Daily Weather History Graph

Daily Weather History Graph

Search for Another Location

Airport or City:

Trip Planner

Search our weather history database for the weather conditions in past years. The results will help you decide how hot, cold, wet, or windy it might be!

Date:

Astronomy

Sep. 21, 2013 Rise Set
Actual Time 7:31 AM CDT 7:41 PM CDT
Civil Twilight 7:05 AM CDT 8:07 PM CDT
Nautical Twilight 6:34 AM CDT 8:38 PM CDT
Astronomical Twilight 6:03 AM CDT 9:08 PM CDT
Moon 8:58 PM CDT (9/21) 9:47 AM CDT (9/21)
Length of Visible Light 13h 02m
Length of Day
12h 10m
Waning Gibbous, 94% of the Moon is Illuminated
Sep 21
Waning Gibbous
Sep 26
Last Quarter
Oct 4
New
Oct 11
First Quarter
Oct 18
Full

Hourly Weather History & Observations

Time (CDT) Temp. Heat Index Dew Point Humidity Pressure Visibility Wind Dir Wind Speed Gust Speed Precip Events Conditions
12:15 AM 57.2 °F - 46.4 °F 67% 30.12 in 10.0 mi SSW 9.2 mph - N/A   Clear
12:35 AM 57.2 °F - 46.4 °F 67% 30.12 in 10.0 mi SSW 9.2 mph - N/A   Clear
12:55 AM 55.4 °F - 46.4 °F 72% 30.11 in 10.0 mi SSW 9.2 mph - N/A   Clear
1:15 AM 55.4 °F - 46.4 °F 72% 30.11 in 10.0 mi SSW 8.1 mph - N/A   Clear
1:35 AM 55.4 °F - 46.4 °F 72% 30.11 in 10.0 mi SSW 9.2 mph - N/A   Clear
1:55 AM 55.4 °F - 46.4 °F 72% 30.11 in 10.0 mi SSW 8.1 mph - N/A   Clear
2:15 AM 55.4 °F - 46.4 °F 72% 30.10 in 10.0 mi SSW 8.1 mph - N/A   Clear
2:35 AM 55.4 °F - 46.4 °F 72% 30.10 in 10.0 mi SSW 9.2 mph - N/A   Clear
2:55 AM 55.4 °F - 46.4 °F 72% 30.10 in 10.0 mi SSW 9.2 mph - N/A   Clear
3:15 AM 55.4 °F - 46.4 °F 72% 30.10 in 10.0 mi SSW 8.1 mph - N/A   Clear
3:35 AM 55.4 °F - 46.4 °F 72% 30.09 in 10.0 mi SSW 9.2 mph - N/A   Clear
3:55 AM 53.6 °F - 46.4 °F 77% 30.09 in 10.0 mi SSW 8.1 mph - N/A   Clear
4:15 AM 55.4 °F - 46.4 °F 72% 30.09 in 10.0 mi SSW 9.2 mph - N/A   Clear
4:35 AM 53.6 °F - 46.4 °F 77% 30.09 in 10.0 mi SSW 6.9 mph - N/A   Clear
4:55 AM 53.6 °F - 46.4 °F 77% 30.09 in 10.0 mi SSW 8.1 mph - N/A   Clear
5:15 AM 53.6 °F - 46.4 °F 77% 30.09 in 10.0 mi SSW 8.1 mph - N/A   Clear
5:35 AM 53.6 °F - 46.4 °F 77% 30.09 in 10.0 mi SW 6.9 mph - N/A   Clear
5:55 AM 53.6 °F - 46.4 °F 77% 30.09 in 10.0 mi SW 5.8 mph - N/A   Clear
6:15 AM 51.8 °F - 46.4 °F 82% 30.08 in 10.0 mi SSW 5.8 mph - N/A   Clear
6:35 AM 51.8 °F - 44.6 °F 76% 30.08 in 10.0 mi SSW 6.9 mph - N/A   Clear
6:55 AM 51.8 °F - 44.6 °F 76% 30.08 in 10.0 mi SSW 6.9 mph - N/A   Clear
7:15 AM 51.8 °F - 44.6 °F 76% 30.08 in 10.0 mi SSW 8.1 mph - N/A   Clear
7:35 AM 51.8 °F - 46.4 °F 82% 30.08 in 10.0 mi SSW 6.9 mph - N/A   Clear
7:55 AM 53.6 °F - 46.4 °F 77% 30.08 in 10.0 mi SSW 6.9 mph - N/A   Clear
8:15 AM 53.6 °F - 46.4 °F 77% 30.09 in 10.0 mi South 8.1 mph - N/A   Clear
8:35 AM 55.4 °F - 48.2 °F 77% 30.09 in 10.0 mi SSW 6.9 mph - N/A   Clear
8:55 AM 57.2 °F - 48.2 °F 72% 30.08 in 10.0 mi South 9.2 mph - N/A   Clear
9:15 AM 60.8 °F - 48.2 °F 63% 30.08 in 10.0 mi SSW 10.4 mph - N/A   Clear
9:35 AM 62.6 °F - 50.0 °F 63% 30.08 in 10.0 mi South 13.8 mph - N/A   Clear
9:55 AM 64.4 °F - 50.0 °F 59% 30.08 in 10.0 mi South 13.8 mph - N/A   Clear
10:15 AM 66.2 °F - 48.2 °F 52% 30.08 in 10.0 mi South 18.4 mph - N/A   Clear
10:35 AM 68.0 °F - 48.2 °F 49% 30.08 in 10.0 mi SSW 13.8 mph - N/A   Clear
10:55 AM 69.8 °F - 48.2 °F 46% 30.07 in 10.0 mi SSW 17.3 mph - N/A   Clear
11:15 AM 71.6 °F - 50.0 °F 46% 30.07 in 10.0 mi South 19.6 mph - N/A   Clear
11:35 AM 73.4 °F - 50.0 °F 44% 30.07 in 10.0 mi South 17.3 mph - N/A   Clear
11:55 AM 73.4 °F - 51.8 °F 47% 30.06 in 10.0 mi South 18.4 mph - N/A   Clear
12:15 PM 75.2 °F - 51.8 °F 44% 30.06 in 10.0 mi South 18.4 mph 24.2 mph N/A   Clear
12:35 PM 75.2 °F - 53.6 °F 47% 30.05 in 10.0 mi South 15.0 mph 27.6 mph N/A   Clear
12:55 PM 77.0 °F - 53.6 °F 44% 30.04 in 10.0 mi South 19.6 mph - N/A   Clear
1:15 PM 77.0 °F - 53.6 °F 44% 30.03 in 10.0 mi South 19.6 mph 24.2 mph N/A   Clear
1:35 PM 78.8 °F - 53.6 °F 42% 30.03 in 10.0 mi South 18.4 mph 26.5 mph N/A   Clear
1:55 PM 78.8 °F - 53.6 °F 42% 30.02 in 10.0 mi South 18.4 mph 25.3 mph N/A   Clear
2:15 PM 78.8 °F - 53.6 °F 42% 30.01 in 10.0 mi South 18.4 mph 24.2 mph N/A   Clear
2:35 PM 78.8 °F - 53.6 °F 42% 30.00 in 10.0 mi South 18.4 mph 21.9 mph N/A   Clear
2:55 PM 80.6 °F 80.3 °F 53.6 °F 39% 29.99 in 10.0 mi SSW 21.9 mph 25.3 mph N/A   Clear
3:15 PM 80.6 °F 80.3 °F 53.6 °F 39% 29.98 in 10.0 mi SSW 17.3 mph 27.6 mph N/A   Clear
3:35 PM 80.6 °F 80.3 °F 53.6 °F 39% 29.98 in 10.0 mi SSW 18.4 mph 26.5 mph N/A   Clear
3:55 PM 80.6 °F 80.3 °F 53.6 °F 39% 29.97 in 10.0 mi South 18.4 mph 26.5 mph N/A   Clear
4:15 PM 80.6 °F 80.3 °F 53.6 °F 39% 29.96 in 10.0 mi South 18.4 mph 23.0 mph N/A   Clear
4:35 PM 80.6 °F 80.3 °F 53.6 °F 39% 29.95 in 10.0 mi SSW 18.4 mph 34.5 mph N/A   Clear
4:55 PM 80.6 °F 80.3 °F 53.6 °F 39% 29.94 in 10.0 mi South 20.7 mph - N/A   Clear
5:15 PM 80.6 °F 80.3 °F 53.6 °F 39% 29.94 in 10.0 mi SSW 17.3 mph 24.2 mph N/A   Clear
5:35 PM 80.6 °F 80.3 °F 53.6 °F 39% 29.93 in 10.0 mi South 20.7 mph - N/A   Clear
5:55 PM 80.6 °F 80.3 °F 53.6 °F 39% 29.93 in 10.0 mi South 17.3 mph 23.0 mph N/A   Clear
6:15 PM 80.6 °F - 51.8 °F 37% 29.93 in 10.0 mi South 17.3 mph 21.9 mph N/A   Clear
6:35 PM 80.6 °F - 51.8 °F 37% 29.92 in 10.0 mi South 18.4 mph - N/A   Clear
6:55 PM 78.8 °F - 51.8 °F 39% 29.92 in 10.0 mi South 17.3 mph 23.0 mph N/A   Clear
7:15 PM 77.0 °F - 51.8 °F 41% 29.91 in 10.0 mi SSE 13.8 mph - N/A   Clear
7:35 PM 75.2 °F - 50.0 °F 41% 29.91 in 10.0 mi SSE 13.8 mph - N/A   Clear
7:55 PM 71.6 °F - 48.2 °F 43% 29.91 in 10.0 mi SSE 12.7 mph - N/A   Clear
8:15 PM 71.6 °F - 48.2 °F 43% 29.91 in 10.0 mi SSE 10.4 mph - N/A   Clear
8:35 PM 69.8 °F - 48.2 °F 46% 29.92 in 10.0 mi SSE 9.2 mph - N/A   Clear
8:55 PM 68.0 °F - 48.2 °F 49% 29.92 in 10.0 mi SSE 11.5 mph - N/A   Clear
9:15 PM 66.2 °F - 48.2 °F 52% 29.93 in 10.0 mi SSE 10.4 mph - N/A   Clear
9:35 PM 64.4 °F - 48.2 °F 56% 29.93 in 10.0 mi SSE 10.4 mph - N/A   Clear
9:55 PM 64.4 °F - 48.2 °F 56% 29.93 in 10.0 mi SSE 10.4 mph - N/A   Clear
10:15 PM 64.4 °F - 46.4 °F 52% 29.93 in 10.0 mi SSE 10.4 mph - N/A   Clear
10:35 PM 62.6 °F - 46.4 °F 55% 29.94 in 10.0 mi SSE 11.5 mph - N/A   Clear
10:55 PM 62.6 °F - 46.4 °F 55% 29.93 in 10.0 mi South 11.5 mph - N/A   Clear
11:15 PM 60.8 °F - 46.4 °F 59% 29.94 in 10.0 mi South 11.5 mph - N/A   Clear
11:35 PM 60.8 °F - 46.4 °F 59% 29.93 in 10.0 mi South 10.4 mph - N/A   Clear
11:55 PM 60.8 °F - 44.6 °F 55% 29.93 in 10.0 mi South 11.5 mph - N/A   Clear